TimeEDT,TemperatureF,Dew PointF,Humidity,Sea Level PressureIn,VisibilityMPH,Wind Direction,Wind SpeedMPH,Gust SpeedMPH,PrecipitationIn,Events,Conditions,WindDirDegrees,DateUTC
12:53 AM,35.1,32.0,89,30.25,10.0,Calm,Calm,-,N/A,,Clear,0,2012-10-09 04:53:00
1:53 AM,34.0,32.0,92,30.25,10.0,South,3.5,-,N/A,,Clear,180,2012-10-09 05:53:00
2:53 AM,36.0,34.0,93,30.24,10.0,Calm,Calm,-,N/A,,Clear,0,2012-10-09 06:53:00
3:37 AM,39.2,37.4,93,30.21,2.5,SW,3.5,-,N/A,,Mostly Cloudy,220,2012-10-09 07:37:00
3:39 AM,39.2,37.4,93,30.21,1.8,WSW,3.5,-,N/A,,Mostly Cloudy,240,2012-10-09 07:39:00
3:49 AM,39.2,37.4,93,30.21,0.5,SW,3.5,-,N/A,Fog,Fog,230,2012-10-09 07:49:00
4:01 AM,39.2,39.2,100,30.21,2.0,WSW,3.5,-,N/A,,Overcast,240,2012-10-09 08:01:00
4:03 AM,39.2,39.2,100,30.21,3.0,WSW,4.6,-,N/A,,Overcast,240,2012-10-09 08:03:00
4:32 AM,41.0,39.2,93,30.21,9.0,SSW,3.5,-,N/A,,Overcast,210,2012-10-09 08:32:00
4:53 AM,41.0,39.9,96,30.23,9.0,SW,3.5,-,N/A,,Overcast,220,2012-10-09 08:53:00
5:53 AM,43.0,39.9,89,30.23,10.0,Calm,Calm,-,N/A,,Overcast,0,2012-10-09 09:53:00
6:53 AM,43.0,39.9,89,30.23,10.0,SSW,3.5,-,N/A,,Overcast,210,2012-10-09 10:53:00
7:53 AM,44.1,39.9,85,30.23,10.0,Calm,Calm,-,N/A,,Overcast,0,2012-10-09 11:53:00
8:53 AM,45.0,41.0,86,30.24,10.0,SSW,4.6,-,N/A,,Overcast,200,2012-10-09 12:53:00
9:53 AM,50.0,39.0,66,30.22,10.0,SW,4.6,-,N/A,,Partly Cloudy,230,2012-10-09 13:53:00
10:53 AM,53.1,35.1,50,30.21,10.0,SSW,10.4,-,N/A,,Clear,200,2012-10-09 14:53:00
11:53 AM,55.9,37.0,49,30.19,10.0,SSW,8.1,-,N/A,,Clear,210,2012-10-09 15:53:00
12:53 PM,57.9,37.0,46,30.16,10.0,SW,8.1,-,N/A,,Clear,230,2012-10-09 16:53:00
1:53 PM,59.0,37.0,44,30.13,10.0,SW,4.6,-,N/A,,Clear,220,2012-10-09 17:53:00
2:53 PM,61.0,36.0,39,30.10,10.0,WSW,6.9,-,N/A,,Clear,240,2012-10-09 18:53:00
3:53 PM,61.0,37.0,41,30.08,10.0,Variable,3.5,-,N/A,,Clear,0,2012-10-09 19:53:00
4:53 PM,60.1,39.0,46,30.06,10.0,ESE,6.9,-,N/A,,Clear,120,2012-10-09 20:53:00
5:53 PM,57.9,39.9,51,30.05,10.0,SE,6.9,-,N/A,,Clear,130,2012-10-09 21:53:00
6:53 PM,54.0,39.9,59,30.05,10.0,SE,10.4,-,N/A,,Clear,140,2012-10-09 22:53:00
7:53 PM,52.0,41.0,66,30.05,10.0,SSE,9.2,-,N/A,,Clear,150,2012-10-09 23:53:00
8:53 PM,52.0,41.0,66,30.05,10.0,South,4.6,-,N/A,,Clear,190,2012-10-10 00:53:00
9:53 PM,52.0,41.0,66,30.04,10.0,South,8.1,-,N/A,,Clear,190,2012-10-10 01:53:00
10:53 PM,51.1,41.0,68,30.03,10.0,SSW,9.2,-,N/A,,Clear,210,2012-10-10 02:53:00
11:53 PM,50.0,41.0,71,30.01,10.0,SSW,5.8,-,N/A,,Clear,210,2012-10-10 03:53:00